When you browse on this site, cookies collect data to enhance your experience and personalize the content and advertising you see.
Visit our Privacy Policy to learn more. By continuing to use the site, you agree to this use of cookies and data.
  • In Hungary
  • List of Countries
  • For 7 days
  • Water Temperature
  • Weather Map
  • News
  • Weather Widgets
  • user-avatar
    Login

    Hourly Weather Jugsalai

    Today, 15 November, Friday

    Time Temperature Precipitation Wind Pressure Humidity
    00:00 +22°C° 0 mm 1 mps 747 mmHg 61%
    01:00 +22°C° 0 mm 1 mps 746 mmHg 62%
    02:00 +21°C° 0 mm 1 mps 746 mmHg 63%
    03:00 +21°C° 0 mm 1 mps 746 mmHg 65%
    04:00 +21°C° 0 mm 1 mps 746 mmHg 66%
    05:00 +20°C° 0 mm 1 mps 746 mmHg 67%
    06:00 +20°C° 0 mm 1 mps 746 mmHg 68%
    07:00 +22°C° 0 mm 1 mps 746 mmHg 65%
    08:00 +23°C° 0 mm 1 mps 747 mmHg 61%
    09:00 +25°C° 0 mm 1 mps 747 mmHg 57%
    10:00 +27°C° 0 mm 1 mps 747 mmHg 53%
    11:00 +28°C° 0 mm 1 mps 747 mmHg 48%
    12:00 +30°C° 0 mm 1 mps 747 mmHg 44%
    13:00 +31°C° 0 mm 1 mps 746 mmHg 41%
    14:00 +31°C° 0 mm 1 mps 745 mmHg 39%
    15:00 +31°C° 0 mm 1 mps 744 mmHg 36%
    16:00 +29°C° 0 mm 1 mps 745 mmHg 40%
    17:00 +28°C° 0 mm 1 mps 745 mmHg 45%
    18:00 +26°C° 0 mm 1 mps 745 mmHg 49%
    19:00 +25°C° 0 mm 1 mps 745 mmHg 50%
    20:00 +25°C° 0 mm 1 mps 746 mmHg 52%
    21:00 +24°C° 0 mm 1 mps 746 mmHg 53%
    22:00 +24°C° 0 mm 1 mps 746 mmHg 55%
    23:00 +23°C° 0 mm 1 mps 746 mmHg 57%

    Tomorrow, 16 November, Saturday

    Time Temperature Precipitation Wind Pressure Humidity
    00:00 +23°C° 0 mm 1 mps 746 mmHg 59%
    01:00 +22°C° 0 mm 1 mps 745 mmHg 60%
    02:00 +22°C° 0 mm 1 mps 745 mmHg 62%
    03:00 +21°C° 0 mm 1 mps 745 mmHg 64%
    04:00 +21°C° 0 mm 1 mps 745 mmHg 65%
    05:00 +21°C° 0 mm 1 mps 745 mmHg 66%
    06:00 +18°C° 0 mm 0 mps 745 mmHg 67%
    07:00 +20°C° 0 mm 0 mps 746 mmHg 63%
    08:00 +22°C° 0 mm 0 mps 746 mmHg 59%
    09:00 +25°C° 0 mm 1 mps 747 mmHg 55%
    10:00 +25°C° 0 mm 0 mps 747 mmHg 50%
    11:00 +27°C° 0 mm 0 mps 746 mmHg 46%
    12:00 +29°C° 0 mm 0 mps 746 mmHg 41%
    13:00 +29°C° 0 mm 0 mps 745 mmHg 39%
    14:00 +31°C° 0 mm 1 mps 745 mmHg 36%
    15:00 +31°C° 0 mm 1 mps 744 mmHg 34%
    16:00 +30°C° 0 mm 1 mps 744 mmHg 38%
    17:00 +28°C° 0 mm 1 mps 744 mmHg 42%
    18:00 +26°C° 0 mm 1 mps 744 mmHg 46%
    19:00 +26°C° 0 mm 1 mps 745 mmHg 47%
    20:00 +25°C° 0 mm 1 mps 746 mmHg 48%
    21:00 +25°C° 0 mm 1 mps 746 mmHg 50%
    22:00 +24°C° 0 mm 1 mps 746 mmHg 52%
    23:00 +23°C° 0 mm 1 mps 746 mmHg 54%

    Day after tomorrow, 17 November, Sunday

    Time Temperature Precipitation Wind Pressure Humidity
    00:00 +23°C° 0 mm 1 mps 746 mmHg 56%
    01:00 +22°C° 0 mm 1 mps 745 mmHg 58%
    02:00 +22°C° 0 mm 1 mps 745 mmHg 59%
    03:00 +19°C° 0 mm 0 mps 745 mmHg 61%
    04:00 +19°C° 0 mm 0 mps 745 mmHg 62%
    05:00 +19°C° 0 mm 0 mps 745 mmHg 63%
    06:00 +18°C° 0 mm 0 mps 745 mmHg 64%
    07:00 +22°C° 0 mm 1 mps 746 mmHg 60%
    08:00 +23°C° 0 mm 1 mps 746 mmHg 56%
    09:00 +25°C° 0 mm 1 mps 747 mmHg 52%
    10:00 +27°C° 0 mm 1 mps 746 mmHg 47%
    11:00 +28°C° 0 mm 1 mps 746 mmHg 42%
    12:00 +30°C° 0 mm 1 mps 745 mmHg 36%
    13:00 +31°C° 0 mm 1 mps 745 mmHg 34%
    14:00 +31°C° 0 mm 2 mps 744 mmHg 32%
    15:00 +32°C° 0 mm 2 mps 744 mmHg 30%
    16:00 +30°C° 0 mm 1 mps 744 mmHg 34%
    17:00 +28°C° 0 mm 1 mps 744 mmHg 38%
    18:00 +26°C° 0 mm 1 mps 744 mmHg 42%
    19:00 +25°C° 0 mm 1 mps 745 mmHg 44%
    20:00 +25°C° 0 mm 1 mps 745 mmHg 46%
    21:00 +24°C° 0 mm 1 mps 746 mmHg 49%
    22:00 +23°C° 0 mm 1 mps 746 mmHg 51%
    23:00 +23°C° 0 mm 1 mps 745 mmHg 53%

    18 November, Monday

    Time Temperature Precipitation Wind Pressure Humidity
    00:00 +22°C° 0 mm 1 mps 745 mmHg 55%
    01:00 +22°C° 0 mm 1 mps 745 mmHg 56%
    02:00 +21°C° 0 mm 1 mps 745 mmHg 57%
    03:00 +21°C° 0 mm 1 mps 745 mmHg 58%
    04:00 +21°C° 0 mm 1 mps 745 mmHg 59%
    05:00 +20°C° 0 mm 1 mps 745 mmHg 60%
    06:00 +20°C° 0 mm 1 mps 745 mmHg 61%
    07:00 +22°C° 0 mm 1 mps 745 mmHg 57%
    08:00 +23°C° 0 mm 1 mps 746 mmHg 54%
    09:00 +25°C° 0 mm 1 mps 747 mmHg 50%
    10:00 +27°C° 0 mm 1 mps 746 mmHg 46%
    11:00 +28°C° 0 mm 1 mps 746 mmHg 42%
    12:00 +30°C° 0 mm 1 mps 745 mmHg 38%
    13:00 +31°C° 0 mm 1 mps 745 mmHg 36%
    14:00 +31°C° 0 mm 1 mps 745 mmHg 34%
    15:00 +32°C° 0 mm 1 mps 744 mmHg 33%
    16:00 +30°C° 0 mm 1 mps 744 mmHg 37%
    17:00 +28°C° 0 mm 1 mps 744 mmHg 41%
    18:00 +26°C° 0 mm 1 mps 744 mmHg 45%
    19:00 +25°C° 0 mm 1 mps 745 mmHg 48%
    20:00 +25°C° 0 mm 1 mps 745 mmHg 50%
    21:00 +24°C° 0 mm 1 mps 746 mmHg 53%
    22:00 +23°C° 0 mm 1 mps 746 mmHg 55%
    23:00 +23°C° 0 mm 1 mps 745 mmHg 57%

    19 November, Tuesday

    Time Temperature Precipitation Wind Pressure Humidity
    00:00 +22°C° 0 mm 1 mps 745 mmHg 59%
    01:00 +22°C° 0 mm 1 mps 745 mmHg 61%
    02:00 +21°C° 0 mm 1 mps 744 mmHg 62%
    03:00 +21°C° 0 mm 1 mps 744 mmHg 64%
    04:00 +21°C° 0 mm 1 mps 744 mmHg 64%
    05:00 +20°C° 0 mm 1 mps 744 mmHg 65%
    06:00 +20°C° 0 mm 1 mps 745 mmHg 65%
    07:00 +22°C° 0 mm 1 mps 745 mmHg 61%
    08:00 +23°C° 0 mm 1 mps 746 mmHg 56%
    09:00 +25°C° 0 mm 1 mps 746 mmHg 52%
    10:00 +27°C° 0 mm 1 mps 746 mmHg 45%
    11:00 +28°C° 0 mm 1 mps 746 mmHg 39%
    12:00 +30°C° 0 mm 1 mps 745 mmHg 33%
    13:00 +30°C° 0 mm 2 mps 745 mmHg 32%
    14:00 +30°C° 0 mm 2 mps 744 mmHg 31%
    15:00 +31°C° 0 mm 2 mps 743 mmHg 30%
    16:00 +29°C° 0 mm 1 mps 743 mmHg 34%
    17:00 +27°C° 0 mm 1 mps 744 mmHg 37%
    18:00 +23°C° 0 mm 0 mps 744 mmHg 41%
    19:00 +23°C° 0 mm 0 mps 744 mmHg 42%
    20:00 +24°C° 0 mm 1 mps 745 mmHg 44%
    21:00 +23°C° 0 mm 1 mps 745 mmHg 46%
    22:00 +23°C° 0 mm 1 mps 745 mmHg 48%
    23:00 +22°C° 0 mm 1 mps 745 mmHg 50%

    20 November, Wednesday

    Time Temperature Precipitation Wind Pressure Humidity
    00:00 +22°C° 0 mm 1 mps 745 mmHg 52%
    01:00 +21°C° 0 mm 1 mps 745 mmHg 53%
    02:00 +19°C° 0 mm 0 mps 744 mmHg 55%
    03:00 +19°C° 0 mm 0 mps 744 mmHg 56%
    04:00 +18°C° 0 mm 0 mps 744 mmHg 57%
    05:00 +18°C° 0 mm 0 mps 745 mmHg 58%
    06:00 +18°C° 0 mm 0 mps 745 mmHg 59%
    07:00 +19°C° 0 mm 0 mps 745 mmHg 56%
    08:00 +23°C° 0 mm 1 mps 746 mmHg 52%
    09:00 +25°C° 0 mm 1 mps 746 mmHg 49%
    10:00 +26°C° 0 mm 1 mps 746 mmHg 44%
    11:00 +28°C° 0 mm 1 mps 746 mmHg 40%
    12:00 +30°C° 0 mm 1 mps 745 mmHg 35%
    13:00 +30°C° 0 mm 1 mps 745 mmHg 34%
    14:00 +30°C° 0 mm 1 mps 744 mmHg 33%
    15:00 +28°C° 0 mm 0 mps 744 mmHg 32%
    16:00 +27°C° 0 mm 0 mps 744 mmHg 36%
    17:00 +25°C° 0 mm 0 mps 744 mmHg 39%
    18:00 +23°C° 0 mm 0 mps 744 mmHg 43%
    19:00 +23°C° 0 mm 0 mps 745 mmHg 44%
    20:00 +22°C° 0 mm 0 mps 745 mmHg 46%
    21:00 +21°C° 0 mm 0 mps 746 mmHg 47%
    22:00 +21°C° 0 mm 0 mps 746 mmHg 49%
    23:00 +20°C° 0 mm 0 mps 746 mmHg 50%
    Show more